Back to catalog

FENGYUN 1C DEB

LostPO
NORAD 31831·DEBRIS·🇨🇳 China

Launched May 10, 1999 from Taiyuan Satellite Launch Center

Loading…

Next Passes (next 24 hours)

TLE

StaleSource: Space-Track

Epoch: Apr 24, 2024, 19:27 UTC

1 31831U 99025CHV 24115.81079752  .00011851  00000-0  67517-2 0  9997
2 31831  97.8570 327.7267 0127868  70.2595 291.2315 14.05791827859715

Track FENGYUN 1C DEB in real time with AllMySat

Download on the App Store